This demonstration page uses our WeatherBlox Daily Observations layout. Learn more.

Left ArrowRight Arrow

Hourly Observations for December 21, 2020

Temp ( °F °C ) Dew Point ( °F °C ) Humidity (%) Winds ( mph kmh ) Pressure ( in mb ) Visibility ( mi km ) Precip ( " mm )
12:53 am 00:53 Clear 33 0.6 31 -0.6 92 92 Calm 29.91 1013 9 14 0.00 0.00
1:53 am 01:53 Clear 29 -1.7 27 -2.8 92 92 Calm 29.91 1013 9 14 0.00 0.00
2:53 am 02:53 Clear with Mist and Fog 28 -2.2 26 -3.3 92 92 Calm 29.90 1013 5 8 0.00 0.00
3:53 am 03:53 Clear 28 -2.2 26 -3.3 92 92 Calm 29.88 1012 7 11 0.00 0.00
4:53 am 04:53 Partly Cloudy 33 0.6 31 -0.6 92 92 Calm 29.87 1012 8 13 0.00 0.00
5:07 am 05:07 Mostly Cloudy 33 0.6 31 -0.6 92 92 Calm 29.89 1012 8 13 0.00 0.00
5:53 am 05:53 Cloudy 36 2.2 34 1.1 93 93 VRB 5 7 29.88 1012 8 13 0.00 0.00
6:53 am 06:53 Cloudy 37 2.8 34 1.1 89 89 SW 7 11 29.88 1012 8 13 0.00 0.00
7:36 am 07:36 Cloudy 37 2.8 34 1.1 89 89 VRB 5 7 29.89 1012 8 13 0.00 0.00
7:53 am 07:53 Cloudy 37 2.8 34 1.1 89 89 VRB 3 6 29.87 1012 7 11 0.00 0.00
8:53 am 08:53 Cloudy with Mist and Fog 38 3.3 34 1.1 86 86 SW 6 9 29.87 1012 6 10 0.00 0.00
9:53 am 09:53 Cloudy with Mist and Fog 38 3.3 35 1.7 89 89 VRB 6 9 29.85 1011 6 10 0.00 0.00
10:34 am 10:34 Cloudy with Mist and Fog 39 3.9 36 2.2 89 89 VRB 7 11 29.85 1011 6 10 0.00 0.00
10:53 am 10:53 Cloudy with Mist and Fog 40 4.4 36 2.2 86 86 VRB 6 9 29.83 1010 6 10 0.00 0.00
11:53 am 11:53 Cloudy with Mist and Fog 40 4.4 36 2.2 86 86 VRB 7 11 29.80 1009 6 10 0.00 0.00
12:39 pm 12:39 Cloudy 42 5.6 36 2.2 79 79 SW 9 15 29.79 1009 8 13 0.00 0.00
12:53 pm 12:53 Cloudy 43 6.1 36 2.2 76 76 VRB 6 9 29.76 1008 8 13 0.00 0.00
1:53 pm 13:53 Cloudy with Light Rain 41 5 38 3.3 89 89 WSW 8 13 29.75 1008 4 6 0.02 0.51
2:19 pm 14:19 Cloudy with Rain 41 5 38 3.3 89 89 SW 8 13 29.75 1007 3 4 0.02 0.51
2:31 pm 14:31 Cloudy with Rain 41 5 38 3.3 89 89 SW 6 9 29.75 1007 2 3 0.06 1.52
2:40 pm 14:40 Cloudy with Light Rain 41 5 38 3.3 89 89 VRB 7 11 29.75 1007 3 5 0.07 1.78
2:53 pm 14:53 Cloudy with Rain 41 5 40 4.4 96 96 SW 5 7 29.75 1007 3 5 0.09 2.29
3:09 pm 15:09 Cloudy with Light Rain 43 6 N/A N/A WSW 7 11 29.77 1008 6 10 0.00 0.00
3:28 pm 15:28 Cloudy with Light Rain 43 6 N/A N/A WSW 7 11 29.78 1008 3 4 0.03 0.76
3:42 pm 15:42 Cloudy with Rain 43 6 N/A N/A SSW 9 15 29.75 1007 2 3 0.06 1.52
3:47 pm 15:47 Cloudy with Light Rain 43 6 N/A N/A SW 8 13 29.76 1008 3 5 0.06 1.52
3:53 pm 15:53 Cloudy 43 6 N/A N/A SW 8 13 29.74 1007 8 13 0.06 1.52
4:53 pm 16:53 Mostly Cloudy 43 6 N/A N/A WSW 7 11 29.76 1008 10 16 0.00 0.00
5:53 pm 17:53 Clear 37 3 N/A N/A WSW 6 9 29.80 1009 10 16 0.00 0.00
6:53 pm 18:53 Cloudy 43 6 N/A N/A WSW 9 15 29.81 1010 10 16 0.00 0.00
7:53 pm 19:53 Cloudy 44 6.7 42 5.6 93 93 W 12 19 29.82 1010 10 16 0.00 0.00
8:53 pm 20:53 Mostly Cloudy 43 6.1 33 0.6 68 68 WSW 10 17 29.84 1011 10 16 0.00 0.00
9:53 pm 21:53 Mostly Cloudy 44 6.7 31 -0.6 60 60 W 13 20 29.85 1011 10 16 0.00 0.00
10:53 pm 22:53 Cloudy 43 6.1 29 -1.7 58 58 W 17 28 29.87 1011 10 16 0.00 0.00
11:53 pm 23:53 Cloudy 42 5.6 28 -2.2 58 58 W 9 15 29.89 1012 10 16 0.00 0.00

Powered by AerisWeather